| time (UTC) | temp C | wind direction | speed KPH | gust KPH | rain 1hr cm | rain 24hr cm | rain mn cm | humidity % | barometer mb |
| 20260505140309 | 5 | 272 | 3.2 | 20.9 | 0.00 | 0.00 | 0.00 | 72 | 1011.9 |
| 20260505130306 | 3 | 229 | 1.6 | 20.9 | 0.00 | 0.00 | 0.00 | 79 | 1011.4 |
| 20260505124806 | 3 | 223 | 4.8 | 22.5 | 0.00 | 0.00 | 0.00 | 81 | 1011.2 |
| 20260505124307 | 3 | 234 | 3.2 | 22.5 | 0.00 | 0.00 | 0.00 | 81 | 1011.4 |
| 20260505123806 | 3 | 239 | 1.6 | 22.5 | 0.00 | 0.00 | 0.00 | 81 | 1011.5 |
| 20260505123308 | 3 | 251 | 3.2 | 22.5 | 0.00 | 0.00 | 0.00 | 81 | 1011.5 |
| 20260505122810 | 3 | 244 | 4.8 | 22.5 | 0.00 | 0.00 | 0.00 | 80 | 1011.5 |
| 20260505122306 | 3 | 250 | 6.4 | 25.7 | 0.00 | 0.00 | 0.00 | 80 | 1011.5 |
| 20260505121806 | 3 | 237 | 4.8 | 25.7 | 0.00 | 0.00 | 0.00 | 80 | 1011.5 |
| 20260505121306 | 3 | 243 | 3.2 | 25.7 | 0.00 | 0.00 | 0.00 | 80 | 1011.4 |
| 20260505120808 | 3 | 250 | 4.8 | 25.7 | 0.00 | 0.00 | 0.00 | 80 | 1011.4 |
| 20260505120307 | 3 | 265 | 4.8 | 22.5 | 0.00 | 0.00 | 0.00 | 80 | 1011.4 |
| 20260505115808 | 3 | 261 | 3.2 | 22.5 | 0.00 | 0.00 | 0.00 | 80 | 1011.5 |
| 20260505115305 | 3 | 248 | 3.2 | 19.3 | 0.00 | 0.00 | 0.00 | 80 | 1011.5 |
| 20260505114806 | 3 | 237 | 1.6 | 19.3 | 0.00 | 0.00 | 0.00 | 80 | 1011.5 |
| 20260505114304 | 3 | 244 | 1.6 | 17.7 | 0.00 | 0.00 | 0.00 | 79 | 1011.5 |
| 20260505113803 | 3 | 250 | 3.2 | 17.7 | 0.00 | 0.00 | 0.00 | 79 | 1011.5 |
| 20260505113303 | 4 | 265 | 1.6 | 14.5 | 0.00 | 0.00 | 0.00 | 78 | 1011.5 |
| 20260505112802 | 4 | 280 | 1.6 | 20.9 | 0.00 | 0.00 | 0.00 | 77 | 1011.4 |
| 20260505112304 | 4 | 252 | 3.2 | 20.9 | 0.00 | 0.00 | 0.00 | 77 | 1011.5 |
| 20260505111802 | 4 | 230 | 3.2 | 17.7 | 0.00 | 0.00 | 0.00 | 77 | 1011.5 |
| 20260505111303 | 4 | 260 | 1.6 | 12.9 | 0.00 | 0.00 | 0.00 | 77 | 1011.6 |
| 20260505111017 | 4 | 239 | 1.6 | 17.7 | 0.00 | 0.00 | 0.00 | 78 | 1011.6 |
| 20260505110251 | 4 | 213 | 1.6 | 17.7 | 0.00 | 0.00 | 0.00 | 78 | 1011.6 |
| 20260505102147 | 5 | 281 | 4.8 | 25.7 | 0.00 | 0.00 | 0.00 | 74 | 1011.5 |
| 20260505101857 | 5 | 229 | 4.8 | 27.4 | 0.00 | 0.00 | 0.00 | 74 | 1011.5 |
| 20260505101127 | 5 | 240 | 4.8 | 27.4 | 0.00 | 0.00 | 0.00 | 74 | 1011.5 |
| 20260505100621 | 5 | 219 | 1.6 | 17.7 | 0.00 | 0.00 | 0.00 | 74 | 1011.4 |
| 20260505100114 | 5 | 247 | 1.6 | 11.3 | 0.00 | 0.00 | 0.00 | 75 | 1011.5 |
| 20260505095832 | 5 | 263 | 3.2 | 20.9 | 0.00 | 0.00 | 0.00 | 75 | 1011.5 |
| 20260505095059 | 5 | 265 | 1.6 | 20.9 | 0.00 | 0.00 | 0.00 | 75 | 1011.4 |
| 20260505094553 | 5 | 227 | 1.6 | 16.1 | 0.00 | 0.00 | 0.00 | 75 | 1011.5 |
| 20260505094040 | 5 | 250 | 1.6 | 16.1 | 0.00 | 0.00 | 0.00 | 76 | 1011.4 |
| 20260505093757 | 5 | 218 | 0.0 | 16.1 | 0.00 | 0.00 | 0.00 | 77 | 1011.5 |
| 20260505093027 | 5 | 229 | 0.0 | 12.9 | 0.00 | 0.00 | 0.00 | 78 | 1011.5 |
| 20260505092517 | 5 | 228 | 0.0 | 12.9 | 0.00 | 0.00 | 0.00 | 78 | 1011.5 |
| 20260505092011 | 5 | 232 | 0.0 | 9.7 | 0.00 | 0.00 | 0.00 | 78 | 1011.5 |
| 20260505091504 | 5 | 259 | 0.0 | 9.7 | 0.00 | 0.00 | 0.00 | 78 | 1011.4 |
| 20260505090951 | 6 | 227 | 0.0 | 9.7 | 0.00 | 0.00 | 0.00 | 78 | 1011.4 |
| 20260505090445 | 6 | 247 | 1.6 | 17.7 | 0.00 | 0.00 | 0.00 | 77 | 1011.4 |
| 20260505090158 | 6 | 232 | 1.6 | 17.7 | 0.00 | 0.00 | 0.00 | 77 | 1011.4 |
| 20260505085429 | 5 | 240 | 0.0 | 16.1 | 0.00 | 0.00 | 0.00 | 78 | 1011.5 |
| 20260505084924 | 5 | 242 | 0.0 | 8.0 | 0.00 | 0.00 | 0.00 | 77 | 1011.4 |
| 20260505084417 | 6 | 245 | 1.6 | 14.5 | 0.00 | 0.00 | 0.00 | 77 | 1011.4 |
| 20260505084123 | 6 | 242 | 0.0 | 14.5 | 0.00 | 0.00 | 0.00 | 76 | 1011.5 |
| 20260505083357 | 6 | 271 | 1.6 | 16.1 | 0.00 | 0.00 | 0.00 | 75 | 1011.6 |
| 20260505082851 | 6 | 261 | 4.8 | 22.5 | 0.00 | 0.00 | 0.00 | 74 | 1011.6 |
| 20260505082340 | 6 | 255 | 9.7 | 24.1 | 0.00 | 0.00 | 0.00 | 73 | 1011.7 |
| 20260505082054 | 6 | 275 | 6.4 | 25.7 | 0.00 | 0.00 | 0.00 | 72 | 1011.7 |
| 20260505081329 | 6 | 275 | 1.6 | 19.3 | 0.00 | 0.00 | 0.00 | 72 | 1011.7 |
| 20260505080818 | 6 | 244 | 1.6 | 17.7 | 0.00 | 0.00 | 0.00 | 72 | 1011.9 |
| 20260505080313 | 6 | 243 | 1.6 | 16.1 | 0.00 | 0.00 | 0.00 | 72 | 1011.9 |
| 20260505075807 | 6 | 238 | 0.0 | 6.4 | 0.00 | 0.00 | 0.00 | 72 | 1011.9 |
| 20260505075514 | 6 | 271 | 0.0 | 6.4 | 0.00 | 0.00 | 0.00 | 72 | 1011.9 |
| 20260505074746 | 6 | 258 | 0.0 | 1.6 | 0.00 | 0.00 | 0.00 | 71 | 1011.7 |
| 20260505074241 | 6 | 274 | 0.0 | 1.6 | 0.00 | 0.00 | 0.00 | 71 | 1011.7 |
| 20260505073731 | 6 | 277 | 0.0 | 0.0 | 0.00 | 0.00 | 0.00 | 72 | 1011.7 |
| 20260505073225 | 6 | 266 | 0.0 | 0.0 | 0.00 | 0.00 | 0.00 | 72 | 1011.7 |
| 20260505072719 | 6 | 248 | 0.0 | 1.6 | 0.00 | 0.00 | 0.00 | 72 | 1011.9 |
| 20260505072221 | 6 | 231 | 0.0 | 12.9 | 0.00 | 0.00 | 0.00 | 73 | 1011.7 |
| 20260505071720 | 6 | 223 | 1.6 | 12.9 | 0.00 | 0.00 | 0.00 | 73 | 1011.9 |
| 20260505071442 | 6 | 217 | 3.2 | 24.1 | 0.00 | 0.00 | 0.00 | 73 | 1011.9 |
| 20260505070718 | 7 | 229 | 3.2 | 24.1 | 0.00 | 0.00 | 0.00 | 72 | 1011.9 |
| 20260505070219 | 7 | 219 | 1.6 | 22.5 | 0.00 | 0.00 | 0.00 | 70 | 1011.9 |
| 20260505065716 | 7 | 209 | 1.6 | 22.5 | 0.00 | 0.00 | 0.00 | 68 | 1012.0 |
| 20260505065216 | 7 | 234 | 1.6 | 22.5 | 0.00 | 0.00 | 0.00 | 67 | 1011.9 |
| 20260505064715 | 7 | 236 | 1.6 | 22.5 | 0.00 | 0.00 | 0.00 | 67 | 1012.0 |
| 20260505064438 | 7 | 220 | 1.6 | 16.1 | 0.00 | 0.00 | 0.00 | 67 | 1011.9 |
| 20260505063935 | 7 | 243 | 1.6 | 22.5 | 0.00 | 0.00 | 0.00 | 68 | 1011.9 |
| 20260505063217 | 7 | 208 | 3.2 | 22.5 | 0.00 | 0.00 | 0.00 | 68 | 1011.9 |
| 20260505062718 | 7 | 227 | 4.8 | 19.3 | 0.00 | 0.00 | 0.00 | 67 | 1012.0 |
| 20260505062204 | 7 | 244 | 6.4 | 20.9 | 0.00 | 0.00 | 0.00 | 67 | 1011.9 |
| 20260505061917 | 7 | 215 | 4.8 | 22.5 | 0.00 | 0.00 | 0.00 | 67 | 1011.7 |
| 20260505061151 | 7 | 210 | 4.8 | 22.5 | 0.00 | 0.00 | 0.00 | 67 | 1011.9 |
| 20260505060641 | 7 | 217 | 8.0 | 22.5 | 0.00 | 0.00 | 0.00 | 67 | 1011.7 |
| 20260505060135 | 7 | 207 | 8.0 | 22.5 | 0.00 | 0.00 | 0.00 | 68 | 1011.9 |
| 20260505055850 | 7 | 205 | 6.4 | 25.7 | 0.00 | 0.00 | 0.00 | 68 | 1011.7 |
| 20260505055115 | 7 | 214 | 8.0 | 25.7 | 0.00 | 0.00 | 0.00 | 68 | 1011.7 |
| 20260505054832 | 7 | 200 | 9.7 | 30.6 | 0.00 | 0.00 | 0.00 | 68 | 1011.6 |
| 20260505054104 | 7 | 201 | 8.0 | 30.6 | 0.00 | 0.00 | 0.00 | 68 | 1011.6 |
| 20260505053556 | 7 | 208 | 9.7 | 27.4 | 0.00 | 0.00 | 0.00 | 67 | 1011.5 |
| 20260505053048 | 7 | 211 | 9.7 | 32.2 | 0.00 | 0.00 | 0.00 | 67 | 1011.5 |
| 20260505052541 | 7 | 239 | 8.0 | 29.0 | 0.00 | 0.00 | 0.00 | 66 | 1011.5 |
| 20260505052034 | 7 | 214 | 6.4 | 29.0 | 0.00 | 0.00 | 0.00 | 66 | 1011.6 |
| 20260505051755 | 7 | 201 | 8.0 | 29.0 | 0.00 | 0.00 | 0.00 | 65 | 1011.6 |
| 20260505051035 | 7 | 215 | 6.4 | 25.7 | 0.00 | 0.00 | 0.00 | 64 | 1011.6 |
| 20260505050533 | 7 | 205 | 6.4 | 29.0 | 0.00 | 0.00 | 0.00 | 64 | 1011.6 |
| 20260505041526 | 7 | 219 | 4.8 | 20.9 | 0.00 | 0.00 | 0.00 | 65 | 1011.6 |
| 20260505041021 | 7 | 205 | 6.4 | 22.5 | 0.00 | 0.00 | 0.00 | 65 | 1011.6 |
| 20260505040514 | 7 | 211 | 6.4 | 22.5 | 0.00 | 0.00 | 0.00 | 65 | 1011.7 |
| 20260505040014 | 7 | 212 | 4.8 | 27.4 | 0.00 | 0.00 | 0.00 | 66 | 1011.6 |
| 20260505035512 | 7 | 198 | 4.8 | 27.4 | 0.00 | 0.00 | 0.00 | 66 | 1011.6 |
| 20260505035504 | 7 | 208 | 4.8 | 25.7 | 0.00 | 0.00 | 0.00 | 66 | 1011.6 |
| 20260505034512 | 7 | 209 | 6.4 | 25.7 | 0.00 | 0.00 | 0.00 | 66 | 1011.6 |
| 20260505034011 | 7 | 196 | 6.4 | 29.0 | 0.00 | 0.00 | 0.00 | 66 | 1011.6 |
| 20260505033512 | 8 | 210 | 6.4 | 29.0 | 0.00 | 0.00 | 0.00 | 65 | 1011.6 |
| 20260505033010 | 8 | 192 | 11.3 | 30.6 | 0.00 | 0.00 | 0.00 | 65 | 1011.6 |
| 20260505032511 | 8 | 200 | 8.0 | 30.6 | 0.00 | 0.00 | 0.00 | 64 | 1011.6 |
| 20260505032230 | 8 | 227 | 1.6 | 29.0 | 0.00 | 0.00 | 0.00 | 64 | 1011.5 |
| 20260505031729 | 8 | 205 | 1.6 | 19.3 | 0.00 | 0.00 | 0.00 | 63 | 1011.5 |
| 20260505031007 | 8 | 211 | 3.2 | 19.3 | 0.00 | 0.00 | 0.00 | 63 | 1011.5 |
| 20260505030507 | 8 | 203 | 4.8 | 24.1 | 0.00 | 0.00 | 0.00 | 63 | 1011.5 |
| 20260505030227 | 8 | 205 | 6.4 | 24.1 | 0.00 | 0.00 | 0.00 | 63 | 1011.5 |
| 20260505025508 | 8 | 232 | 8.0 | 29.0 | 0.00 | 0.00 | 0.00 | 62 | 1011.4 |
| 20260505025008 | 8 | 204 | 9.7 | 29.0 | 0.00 | 0.00 | 0.00 | 62 | 1011.5 |
| 20260505024506 | 8 | 218 | 9.7 | 29.0 | 0.00 | 0.00 | 0.00 | 60 | 1011.2 |
| 20260505024009 | 8 | 212 | 8.0 | 30.6 | 0.00 | 0.00 | 0.00 | 59 | 1011.0 |
| 20260505023503 | 8 | 204 | 3.2 | 30.6 | 0.00 | 0.00 | 0.00 | 58 | 1011.0 |
| 20260505023003 | 9 | 221 | 3.2 | 24.1 | 0.00 | 0.00 | 0.00 | 56 | 1010.9 |
| 20260505022504 | 9 | 227 | 1.6 | 16.1 | 0.00 | 0.00 | 0.00 | 54 | 1010.9 |
| 20260505022002 | 9 | 221 | 1.6 | 17.7 | 0.00 | 0.00 | 0.00 | 53 | 1010.9 |
| 20260505021504 | 10 | 215 | 1.6 | 17.7 | 0.00 | 0.00 | 0.00 | 52 | 1010.8 |
| 20260505021002 | 10 | 205 | 0.0 | 12.9 | 0.00 | 0.00 | 0.00 | 52 | 1010.8 |
| 20260505020502 | 10 | 207 | 0.0 | 3.2 | 0.00 | 0.00 | 0.00 | 52 | 1010.8 |
| 20260505020003 | 10 | 207 | 0.0 | 3.2 | 0.00 | 0.00 | 0.00 | 52 | 1010.8 |
| 20260505015458 | 10 | 207 | 0.0 | 11.3 | 0.00 | 0.00 | 0.00 | 53 | 1010.9 |
| 20260505014952 | 10 | 196 | 0.0 | 11.3 | 0.00 | 0.00 | 0.00 | 53 | 1010.9 |
| 20260505014703 | 10 | 207 | 0.0 | 6.4 | 0.00 | 0.00 | 0.00 | 53 | 1010.9 |
| 20260505013931 | 10 | 199 | 0.0 | 16.1 | 0.00 | 0.00 | 0.00 | 53 | 1011.1 |
| 20260505013426 | 10 | 209 | 1.6 | 16.1 | 0.00 | 0.00 | 0.00 | 54 | 1011.1 |
| 20260505012916 | 10 | 205 | 3.2 | 17.7 | 0.00 | 0.00 | 0.00 | 54 | 1011.4 |
| 20260505012409 | 10 | 202 | 3.2 | 17.7 | 0.00 | 0.00 | 0.00 | 53 | 1011.4 |
| 20260505011902 | 10 | 209 | 3.2 | 22.5 | 0.00 | 0.00 | 0.00 | 53 | 1011.5 |
| 20260505011349 | 10 | 217 | 4.8 | 22.5 | 0.00 | 0.00 | 0.00 | 52 | 1011.5 |
| 20260505010843 | 10 | 202 | 3.2 | 20.9 | 0.00 | 0.00 | 0.00 | 51 | 1011.5 |
| 20260505010337 | 10 | 196 | 3.2 | 29.0 | 0.00 | 0.00 | 0.00 | 51 | 1011.5 |
| 20260505005828 | 11 | 225 | 8.0 | 29.0 | 0.00 | 0.00 | 0.00 | 51 | 1011.5 |
| 20260505005321 | 11 | 184 | 4.8 | 25.7 | 0.00 | 0.00 | 0.00 | 50 | 1011.5 |
| 20260505005038 | 12 | 214 | 0.0 | 14.5 | 0.00 | 0.00 | 0.00 | 45 | 1011.5 |
| 20260505004301 | 12 | 177 | 0.0 | 6.4 | 0.00 | 0.00 | 0.00 | 42 | 1011.5 |
| 20260505003755 | 12 | 163 | 0.0 | 3.2 | 0.00 | 0.00 | 0.00 | 42 | 1011.4 |
| 20260505003514 | 12 | 165 | 0.0 | 3.2 | 0.00 | 0.00 | 0.00 | 42 | 1011.4 |
| 20260505003006 | 12 | 175 | 0.0 | 3.2 | 0.00 | 0.00 | 0.00 | 42 | 1011.5 |
| 20260505002233 | 12 | 190 | 1.6 | 9.7 | 0.00 | 0.00 | 0.00 | 43 | 1011.5 |
| 20260505001950 | 12 | 201 | 1.6 | 9.7 | 0.00 | 0.00 | 0.00 | 43 | 1011.6 |
| 20260505001212 | 12 | 150 | 1.6 | 11.3 | 0.00 | 0.00 | 0.00 | 43 | 1011.6 |
| 20260505000707 | 12 | 146 | 1.6 | 17.7 | 0.00 | 0.00 | 0.00 | 44 | 1011.7 |
| 20260505000204 | 12 | 162 | 3.2 | 25.7 | 0.00 | 0.00 | 0.00 | 43 | 1011.7 |
| 20260504235916 | 12 | 183 | 4.8 | 25.7 | 0.00 | 0.00 | 0.00 | 43 | 1011.9 |
| 20260504235144 | 12 | 198 | 4.8 | 20.9 | 0.00 | 0.00 | 0.00 | 43 | 1011.9 |
| 20260504234639 | 13 | 167 | 6.4 | 24.1 | 0.00 | 0.00 | 0.00 | 41 | 1012.0 |
| 20260504234124 | 14 | 155 | 4.8 | 24.1 | 0.00 | 0.00 | 0.00 | 37 | 1011.9 |
| 20260504233618 | 14 | 206 | 0.0 | 9.7 | 0.00 | 0.00 | 0.00 | 37 | 1012.0 |
| 20260504233113 | 13 | 232 | 0.0 | 0.0 | 0.00 | 0.00 | 0.00 | 38 | 1012.0 |
| 20260504232603 | 13 | 271 | 0.0 | 9.7 | 0.00 | 0.00 | 0.00 | 38 | 1011.9 |
| 20260504232058 | 13 | 281 | 0.0 | 8.0 | 0.00 | 0.00 | 0.00 | 37 | 1012.0 |
| 20260504231551 | 13 | 304 | 0.0 | 8.0 | 0.00 | 0.00 | 0.00 | 38 | 1011.9 |
| 20260504231037 | 13 | 279 | 0.0 | 3.2 | 0.00 | 0.00 | 0.00 | 38 | 1012.0 |
| 20260504230533 | 13 | 225 | 0.0 | 11.3 | 0.00 | 0.00 | 0.00 | 40 | 1012.0 |
| 20260504230025 | 13 | 267 | 1.6 | 17.7 | 0.00 | 0.00 | 0.00 | 40 | 1012.0 |
| 20260504225515 | 13 | 320 | 3.2 | 20.9 | 0.00 | 0.00 | 0.00 | 40 | 1012.0 |
| 20260504225009 | 13 | 289 | 3.2 | 20.9 | 0.00 | 0.00 | 0.00 | 41 | 1012.0 |
| 20260504224504 | 13 | 250 | 3.2 | 19.3 | 0.00 | 0.00 | 0.00 | 43 | 1012.0 |
| 20260504223949 | 13 | 311 | 4.8 | 20.9 | 0.00 | 0.00 | 0.00 | 42 | 1012.1 |
| 20260504223443 | 13 | 250 | 3.2 | 20.9 | 0.00 | 0.00 | 0.00 | 43 | 1012.1 |
| 20260504222937 | 12 | 290 | 4.8 | 24.1 | 0.00 | 0.00 | 0.00 | 45 | 1012.2 |
| 20260504222655 | 12 | 249 | 8.0 | 24.1 | 0.00 | 0.00 | 0.00 | 44 | 1012.2 |
| 20260504221921 | 12 | 265 | 6.4 | 29.0 | 0.00 | 0.00 | 0.00 | 45 | 1012.4 |
| 20260504221415 | 12 | 279 | 1.6 | 29.0 | 0.00 | 0.00 | 0.00 | 44 | 1012.4 |
| 20260504220901 | 12 | 281 | 1.6 | 19.3 | 0.00 | 0.00 | 0.00 | 43 | 1012.4 |
| 20260504220355 | 12 | 266 | 0.0 | 1.6 | 0.00 | 0.00 | 0.00 | 44 | 1012.5 |
| 20260504220337 | 12 | 251 | 0.0 | 1.6 | 0.00 | 0.00 | 0.00 | 44 | 1012.6 |
| 20260504215827 | 11 | 322 | 0.0 | 1.6 | 0.00 | 0.00 | 0.00 | 44 | 1012.5 |
| 20260504214842 | 11 | 5 | 0.0 | 1.6 | 0.00 | 0.00 | 0.00 | 45 | 1012.6 |
| 20260504214528 | 11 | 80 | 0.0 | 3.2 | 0.00 | 0.00 | 0.00 | 49 | 1012.8 |
| 20260504214420 | 11 | 350 | 0.0 | 0.0 | 0.00 | 0.00 | 0.00 | 46 | 1012.6 |
| 20260504213935 | 11 | 80 | 0.0 | 0.0 | 0.00 | 0.00 | 0.00 | 47 | 1012.8 |
| 20260504212842 | 10 | 98 | 0.0 | 8.0 | 0.00 | 0.00 | 0.00 | 50 | 1012.8 |
| 20260504212342 | 10 | 121 | 1.6 | 14.5 | 0.00 | 0.00 | 0.00 | 52 | 1012.8 |
| 20260504211842 | 10 | 134 | 1.6 | 14.5 | 0.00 | 0.00 | 0.00 | 54 | 1013.1 |
| 20260504211344 | 10 | 143 | 1.6 | 16.1 | 0.00 | 0.00 | 0.00 | 53 | 1013.1 |
| 20260504210844 | 10 | 124 | 1.6 | 16.1 | 0.00 | 0.00 | 0.00 | 52 | 1013.2 |
| 20260504210342 | 10 | 216 | 1.6 | 16.1 | 0.00 | 0.00 | 0.00 | 51 | 1013.3 |
| 20260504205842 | 10 | 154 | 1.6 | 17.7 | 0.00 | 0.00 | 0.00 | 51 | 1013.2 |
| 20260504205342 | 11 | 164 | 1.6 | 25.7 | 0.00 | 0.00 | 0.00 | 50 | 1013.2 |
| 20260504205054 | 11 | 172 | 3.2 | 25.7 | 0.00 | 0.00 | 0.00 | 49 | 1013.1 |
| 20260504204330 | 11 | 173 | 6.4 | 25.7 | 0.00 | 0.00 | 0.00 | 47 | 1013.1 |
| 20260504203821 | 11 | 175 | 6.4 | 25.7 | 0.00 | 0.00 | 0.00 | 45 | 1013.1 |
| 20260504203315 | 11 | 206 | 4.8 | 25.7 | 0.00 | 0.00 | 0.00 | 42 | 1013.0 |
| 20260504203033 | 12 | 192 | 3.2 | 25.7 | 0.00 | 0.00 | 0.00 | 41 | 1013.0 |
| 20260504202307 | 12 | 196 | 3.2 | 25.7 | 0.00 | 0.00 | 0.00 | 40 | 1012.8 |
| 20260504201806 | 12 | 194 | 1.6 | 22.5 | 0.00 | 0.00 | 0.00 | 39 | 1012.8 |
| 20260504201307 | 13 | 192 | 3.2 | 22.5 | 0.00 | 0.00 | 0.00 | 37 | 1012.8 |
| 20260504200806 | 13 | 185 | 3.2 | 22.5 | 0.00 | 0.00 | 0.00 | 35 | 1012.7 |
| 20260504200524 | 13 | 145 | 0.0 | 8.0 | 0.00 | 0.00 | 0.00 | 35 | 1012.7 |
| 20260504195801 | 13 | 246 | 0.0 | 0.0 | 0.00 | 0.00 | 0.00 | 33 | 1012.7 |
| 20260504195304 | 13 | 277 | 0.0 | 0.0 | 0.00 | 0.00 | 0.00 | 35 | 1012.6 |
| 20260504194803 | 12 | 292 | 0.0 | 1.6 | 0.00 | 0.00 | 0.00 | 35 | 1012.6 |
| 20260504194521 | 12 | 306 | 1.6 | 17.7 | 0.00 | 0.00 | 0.00 | 36 | 1012.7 |
| 20260504193759 | 12 | 300 | 4.8 | 25.7 | 0.00 | 0.00 | 0.00 | 37 | 1012.6 |
| 20260504193745 | 12 | 308 | 4.8 | 25.7 | 0.00 | 0.00 | 0.00 | 37 | 1012.6 |
| 20260504192758 | 12 | 355 | 4.8 | 35.4 | 0.00 | 0.00 | 0.00 | 36 | 1012.6 |
| 20260504192259 | 12 | 309 | 6.4 | 35.4 | 0.00 | 0.00 | 0.00 | 36 | 1012.6 |
| 20260504191758 | 12 | 302 | 6.4 | 30.6 | 0.00 | 0.00 | 0.00 | 35 | 1012.6 |
| 20260504191521 | 13 | 342 | 3.2 | 27.4 | 0.00 | 0.00 | 0.00 | 33 | 1012.6 |
| 20260504190759 | 13 | 302 | 3.2 | 24.1 | 0.00 | 0.00 | 0.00 | 34 | 1012.6 |
| 20260504190259 | 13 | 282 | 1.6 | 17.7 | 0.00 | 0.00 | 0.00 | 34 | 1012.6 |
| 20260504185759 | 13 | 293 | 3.2 | 22.5 | 0.00 | 0.00 | 0.00 | 34 | 1012.6 |
| 20260504185259 | 13 | 292 | 3.2 | 25.7 | 0.00 | 0.00 | 0.00 | 34 | 1012.6 |
| 20260504185020 | 13 | 272 | 1.6 | 25.7 | 0.00 | 0.00 | 0.00 | 33 | 1012.5 |
| 20260504184258 | 13 | 302 | 6.4 | 22.5 | 0.00 | 0.00 | 0.00 | 33 | 1012.5 |
| 20260504183758 | 13 | 283 | 6.4 | 25.7 | 0.00 | 0.00 | 0.00 | 33 | 1012.5 |
| 20260504183257 | 13 | 254 | 6.4 | 25.7 | 0.00 | 0.00 | 0.00 | 32 | 1012.4 |
| 20260504182758 | 14 | 274 | 4.8 | 20.9 | 0.00 | 0.00 | 0.00 | 32 | 1012.5 |
| 20260504182258 | 15 | 217 | 3.2 | 19.3 | 0.00 | 0.00 | 0.00 | 33 | 1012.4 |
| 20260504182240 | 15 | 189 | 3.2 | 20.9 | 0.00 | 0.00 | 0.00 | 33 | 1012.4 |
| 20260504181258 | 15 | 159 | 1.6 | 20.9 | 0.00 | 0.00 | 0.00 | 32 | 1012.2 |
| 20260504180757 | 16 | 205 | 1.6 | 17.7 | 0.00 | 0.00 | 0.00 | 28 | 1012.4 |
| 20260504180259 | 16 | 215 | 3.2 | 17.7 | 0.00 | 0.00 | 0.00 | 27 | 1012.2 |
| 20260504175759 | 16 | 173 | 1.6 | 14.5 | 0.00 | 0.00 | 0.00 | 27 | 1012.2 |
| 20260504175257 | 16 | 288 | 1.6 | 14.5 | 0.00 | 0.00 | 0.00 | 27 | 1012.2 |
| 20260504174757 | 16 | 198 | 3.2 | 16.1 | 0.00 | 0.00 | 0.00 | 28 | 1012.4 |
| 20260504174259 | 16 | 137 | 3.2 | 17.7 | 0.00 | 0.00 | 0.00 | 28 | 1012.4 |
| 20260504173758 | 16 | 204 | 1.6 | 17.7 | 0.00 | 0.00 | 0.00 | 27 | 1012.4 |
| 20260504173521 | 16 | 192 | 1.6 | 16.1 | 0.00 | 0.00 | 0.00 | 29 | 1012.5 |
| 20260504172759 | 15 | 178 | 1.6 | 16.1 | 0.00 | 0.00 | 0.00 | 29 | 1012.5 |
| 20260504172258 | 15 | 190 | 1.6 | 11.3 | 0.00 | 0.00 | 0.00 | 30 | 1012.6 |
| 20260504172005 | 15 | 238 | 0.0 | 11.3 | 0.00 | 0.00 | 0.00 | 31 | 1012.7 |
| 20260504171238 | 15 | 232 | 1.6 | 16.1 | 0.00 | 0.00 | 0.00 | 31 | 1012.8 |
| 20260504170739 | 15 | 251 | 3.2 | 16.1 | 0.00 | 0.00 | 0.00 | 31 | 1012.8 |
| 20260504170239 | 15 | 222 | 1.6 | 14.5 | 0.00 | 0.00 | 0.00 | 32 | 1013.0 |
| 20260504160446 | 13 | 181 | 1.6 | 17.7 | 0.00 | 0.00 | 0.00 | 40 | 1013.2 |
| 20260504151143 | 12 | 215 | 3.2 | 20.9 | 0.00 | 0.00 | 0.00 | 43 | 1013.7 |
| 20260504150645 | 12 | 213 | 3.2 | 17.7 | 0.00 | 0.00 | 0.00 | 43 | 1013.8 |
| 20260504150144 | 12 | 205 | 1.6 | 17.7 | 0.00 | 0.00 | 0.00 | 43 | 1013.8 |